Location: Mohawk View
(42.7837°N, 73.7885°W)
Time: 11:28:47
(UTC+00:00)

Cosmos 2279 Rocket - Pass Details

Date: 17 June 2021
Orbit: 963 x 980 km, 82.9° (Epoch: 26 July)

Event Time Altitude Azimuth Distance (km) Brightness Sun altitude
Rises 05:36:31 0° 353° (N) 3,685 8.3 -23.2°
Reaches altitude 10° 05:39:04 10° 356° (N) 2,731 7.4 -23.1°
Maximum altitude 05:45:19 75° 81° (E) 1,009 4.0 -22.9°
Enters shadow 05:47:43 40° 158° (SSE) 1,402 4.4 -22.8°
